Data No.,UTC Date,UTC Time,Latitude,Longitude,Course(deg),Temp(degC),Sal(psu)
5784,2002/12/14,14:57:00,00-00.0600N,151-07.4600E,328,29.754,34.5243
5785,2002/12/14,14:58:00,00-00.2000N,151-07.3800E,328,29.755,34.5252
5786,2002/12/14,14:59:00,00-00.4500N,151-07.2300E,328,29.767,34.5251
5787,2002/12/14,15:00:00,00-00.6100N,151-07.1300E,327,29.755,34.5256
5788,2002/12/14,15:01:00,00-00.7900N,151-07.0100E,327,29.749,34.5233
5789,2002/12/14,15:02:00,00-00.9500N,151-06.9100E,327,29.759,34.5213
5790,2002/12/14,15:03:00,00-01.1400N,151-06.8000E,328,29.761,34.5222
5791,2002/12/14,15:04:00,00-01.3400N,151-06.6800E,327,29.751,34.5226
5792,2002/12/14,15:05:00,00-01.5000N,151-06.5800E,327,29.73,34.5208
5793,2002/12/14,15:06:00,00-01.7000N,151-06.4500E,328,29.717,34.5201
5794,2002/12/14,15:07:00,00-01.8400N,151-06.3600E,327,29.702,34.5193
5795,2002/12/14,15:08:00,00-02.0300N,151-06.2400E,326,29.674,34.5187
5796,2002/12/14,15:09:00,00-02.2500N,151-06.1000E,326,29.677,34.5161
5797,2002/12/14,15:10:00,00-02.3700N,151-06.0300E,328,29.678,34.5158
5798,2002/12/14,15:11:00,00-02.6000N,151-05.8900E,327,29.67,34.515
5799,2002/12/14,15:12:00,00-02.7800N,151-05.7700E,327,29.661,34.5148
5800,2002/12/14,15:13:00,00-02.9200N,151-05.6900E,327,29.661,34.5137
5801,2002/12/14,15:14:00,00-03.1300N,151-05.5500E,327,29.698,34.5135
5802,2002/12/14,15:15:00,00-03.2600N,151-05.4700E,327,29.71,34.5141
5803,2002/12/14,15:16:00,00-03.5000N,151-05.3200E,327,29.712,34.5133
5804,2002/12/14,15:17:00,00-03.5800N,151-05.2700E,326,29.735,34.5131
5805,2002/12/14,15:18:00,00-03.8600N,151-05.0900E,327,29.766,34.5133
5806,2002/12/14,15:19:00,00-04.0300N,151-04.9800E,327,29.783,34.5138
5807,2002/12/14,15:20:00,00-04.2100N,151-04.8600E,327,29.777,34.5153
5808,2002/12/14,15:21:00,00-04.3400N,151-04.7800E,326,29.776,34.515
5809,2002/12/14,15:22:00,00-04.5100N,151-04.6700E,327,29.777,34.5146
5810,2002/12/14,15:23:00,00-04.6300N,151-04.6000E,327,29.766,34.5152
5811,2002/12/14,15:24:00,00-04.8800N,151-04.4400E,328,29.766,34.5143
5812,2002/12/14,15:25:00,00-05.0300N,151-04.3500E,327,29.756,34.5147
5813,2002/12/14,15:26:00,00-05.3000N,151-04.1900E,327,29.739,34.5145
5814,2002/12/14,15:27:00,00-05.4900N,151-04.0700E,328,29.733,34.5154
5815,2002/12/14,15:28:00,00-05.6400N,151-03.9700E,327,29.734,34.5147
5816,2002/12/14,15:29:00,00-05.7800N,151-03.8800E,327,29.728,34.5148
5817,2002/12/14,15:30:00,00-05.9300N,151-03.7900E,327,29.726,34.5153
5818,2002/12/14,15:31:00,00-06.1500N,151-03.6500E,328,29.718,34.516
5819,2002/12/14,15:32:00,00-06.3800N,151-03.5100E,328,29.708,34.5158
5820,2002/12/14,15:33:00,00-06.5600N,151-03.4000E,328,29.685,34.5112
5821,2002/12/14,15:34:00,00-06.7500N,151-03.2800E,327,29.659,34.5085
5822,2002/12/14,15:35:00,00-06.9300N,151-03.1700E,327,29.64,34.5073
5823,2002/12/14,15:36:00,00-07.1200N,151-03.0500E,327,29.629,34.5096
5824,2002/12/14,15:37:00,00-07.2600N,151-02.9700E,327,29.641,34.4923
5825,2002/12/14,15:38:00,00-07.4600N,151-02.8400E,327,29.63,34.502
5826,2002/12/14,15:39:00,00-07.6700N,151-02.7100E,327,29.641,34.5012
5827,2002/12/14,15:40:00,00-07.8100N,151-02.6200E,327,29.652,34.5013
5828,2002/12/14,15:41:00,00-08.0200N,151-02.4900E,327,29.652,34.4994
5829,2002/12/14,15:42:00,00-08.1600N,151-02.4000E,327,29.666,34.5011
5830,2002/12/14,15:43:00,00-08.3900N,151-02.2600E,327,29.673,34.4997
5831,2002/12/14,15:44:00,00-08.5700N,151-02.1400E,326,29.677,34.4988
5832,2002/12/14,15:45:00,00-08.7500N,151-02.0300E,327,29.675,34.501
5833,2002/12/14,15:46:00,00-08.9400N,151-01.9100E,327,29.667,34.4986
5834,2002/12/14,15:47:00,00-09.0600N,151-01.8300E,327,29.66,34.4979
5835,2002/12/14,15:48:00,00-09.2900N,151-01.6900E,327,29.66,34.4959
5836,2002/12/14,15:49:00,00-09.4600N,151-01.5800E,327,29.649,34.4939
5837,2002/12/14,15:50:00,00-09.6700N,151-01.4500E,327,29.649,34.4931
5838,2002/12/14,15:51:00,00-09.8600N,151-01.3300E,327,29.65,34.4929
5840,2002/12/14,15:53:00,00-10.1800N,151-01.1200E,327,29.655,34.4919
5841,2002/12/14,15:54:00,00-10.3900N,151-00.9900E,327,29.658,34.4899
5842,2002/12/14,15:55:00,00-10.5800N,151-00.8700E,327,29.659,34.4905
5843,2002/12/14,15:56:00,00-10.7500N,151-00.7600E,326,29.657,34.4873
5844,2002/12/14,15:57:00,00-10.9000N,151-00.6600E,327,29.659,34.49
5845,2002/12/14,15:58:00,00-11.0400N,151-00.5700E,327,29.663,34.4897
5846,2002/12/14,15:59:00,00-11.2400N,151-00.4500E,327,29.661,34.4867
5847,2002/12/14,16:00:00,00-11.5100N,151-00.2800E,327,29.669,34.4854
5848,2002/12/14,16:01:00,00-11.6800N,151-00.1700E,326,29.667,34.4837
5849,2002/12/14,16:02:00,00-11.8500N,151-00.0500E,326,29.666,34.4833
5850,2002/12/14,16:03:00,00-12.0200N,150-59.9500E,327,29.668,34.481
5851,2002/12/14,16:04:00,00-12.1700N,150-59.8500E,327,29.663,34.483
5852,2002/12/14,16:05:00,00-12.4000N,150-59.7100E,326,29.664,34.4809
5853,2002/12/14,16:06:00,00-12.6000N,150-59.5700E,326,29.664,34.4806
5854,2002/12/14,16:07:00,00-12.7900N,150-59.4500E,327,29.674,34.4793
5855,2002/12/14,16:08:00,00-12.9500N,150-59.3500E,327,29.671,34.4788
5856,2002/12/14,16:09:00,00-13.1600N,150-59.2200E,327,29.676,34.4794
5857,2002/12/14,16:10:00,00-13.3000N,150-59.1300E,326,29.684,34.4785
5858,2002/12/14,16:11:00,00-13.5300N,150-58.9800E,326,29.681,34.478
5859,2002/12/14,16:12:00,00-13.7000N,150-58.8700E,327,29.689,34.463
5860,2002/12/14,16:13:00,00-13.8800N,150-58.7600E,327,29.688,34.4643
5861,2002/12/14,16:14:00,00-14.0800N,150-58.6400E,329,29.684,34.465
5862,2002/12/14,16:15:00,00-14.2200N,150-58.5500E,329,29.689,34.4618
5863,2002/12/14,16:16:00,00-14.4600N,150-58.4200E,329,29.697,34.4609
5864,2002/12/14,16:17:00,00-14.6100N,150-58.3300E,329,29.696,34.4623
5865,2002/12/14,16:18:00,00-14.8400N,150-58.1900E,329,29.702,34.4613
5866,2002/12/14,16:19:00,00-15.0400N,150-58.0700E,329,29.706,34.4599
5867,2002/12/14,16:20:00,00-15.1900N,150-57.9900E,329,29.694,34.46
5868,2002/12/14,16:21:00,00-15.4200N,150-57.8500E,329,29.673,34.4586
5869,2002/12/14,16:22:00,00-15.6100N,150-57.7400E,328,29.662,34.4557
5870,2002/12/14,16:23:00,00-15.8000N,150-57.6200E,328,29.579,34.4553
5871,2002/12/14,16:24:00,00-16.0000N,150-57.5000E,328,29.554,34.4536
5872,2002/12/14,16:25:00,00-16.1800N,150-57.3900E,329,29.548,34.4491
5873,2002/12/14,16:26:00,00-16.3800N,150-57.2700E,329,29.53,34.4492
5874,2002/12/14,16:27:00,00-16.5700N,150-57.1600E,329,29.526,34.4478
5875,2002/12/14,16:28:00,00-16.6900N,150-57.0900E,329,29.523,34.4474
5876,2002/12/14,16:29:00,00-16.9600N,150-56.9300E,329,29.527,34.4483
5877,2002/12/14,16:30:00,00-17.0400N,150-56.8800E,329,29.521,34.4488
5878,2002/12/14,16:31:00,00-17.2800N,150-56.7400E,329,29.53,34.4451
5879,2002/12/14,16:32:00,00-17.5200N,150-56.6000E,328,29.536,34.4452
5880,2002/12/14,16:33:00,00-17.7200N,150-56.4700E,329,29.542,34.4469
5881,2002/12/14,16:34:00,00-17.9000N,150-56.3700E,328,29.549,34.4465
5882,2002/12/14,16:35:00,00-18.0700N,150-56.2700E,329,29.552,34.4472
5884,2002/12/14,16:37:00,00-18.4400N,150-56.0500E,329,29.537,34.4469
5885,2002/12/14,16:38:00,00-18.6000N,150-55.9500E,329,29.539,34.4473
5886,2002/12/14,16:39:00,00-18.8100N,150-55.8300E,329,29.53,34.4478
5887,2002/12/14,16:40:00,00-19.0500N,150-55.6900E,329,29.527,34.45
5888,2002/12/14,16:41:00,00-19.2800N,150-55.5500E,328,29.53,34.4513
5889,2002/12/14,16:42:00,00-19.4600N,150-55.4400E,328,29.528,34.4505
5890,2002/12/14,16:43:00,00-19.6300N,150-55.3400E,328,29.522,34.4515
5891,2002/12/14,16:44:00,00-19.8600N,150-55.2000E,329,29.524,34.4524
5892,2002/12/14,16:45:00,00-20.0300N,150-55.1000E,329,29.524,34.4521
5893,2002/12/14,16:46:00,00-20.2300N,150-54.9800E,329,29.525,34.4507
5894,2002/12/14,16:47:00,00-20.4300N,150-54.8600E,329,29.531,34.452
5895,2002/12/14,16:48:00,00-20.6300N,150-54.7500E,329,29.533,34.4515
5896,2002/12/14,16:49:00,00-20.8200N,150-54.6300E,328,29.534,34.4517
5897,2002/12/14,16:50:00,00-20.9700N,150-54.5400E,329,29.532,34.4532
5898,2002/12/14,16:51:00,00-21.2100N,150-54.4000E,329,29.52,34.4533
5899,2002/12/14,16:52:00,00-21.4100N,150-54.2900E,328,29.511,34.4542
5900,2002/12/14,16:53:00,00-21.5800N,150-54.1800E,328,29.51,34.4537
5901,2002/12/14,16:54:00,00-21.7900N,150-54.0500E,329,29.509,34.4541
5902,2002/12/14,16:55:00,00-21.9700N,150-53.9500E,329,29.515,34.4527
5903,2002/12/14,16:56:00,00-22.1800N,150-53.8300E,328,29.517,34.4526
5904,2002/12/14,16:57:00,00-22.3400N,150-53.7300E,328,29.516,34.4537
5905,2002/12/14,16:58:00,00-22.5300N,150-53.6200E,329,29.521,34.453
5906,2002/12/14,16:59:00,00-22.7600N,150-53.4800E,328,29.518,34.4538
5907,2002/12/14,17:00:00,00-22.9400N,150-53.3700E,328,29.52,34.4542
5908,2002/12/14,17:01:00,00-23.1200N,150-53.2600E,329,29.517,34.4574
5909,2002/12/14,17:02:00,00-23.3100N,150-53.1500E,329,29.52,34.4579
5910,2002/12/14,17:03:00,00-23.4700N,150-53.0500E,329,29.522,34.4604
5911,2002/12/14,17:04:00,00-23.6400N,150-52.9500E,328,29.521,34.4602
5913,2002/12/14,17:06:00,00-24.0100N,150-52.7300E,329,29.521,34.4594
5914,2002/12/14,17:07:00,00-24.2200N,150-52.6000E,329,29.52,34.4601
5915,2002/12/14,17:08:00,00-24.4100N,150-52.4900E,329,29.513,34.4617
5916,2002/12/14,17:09:00,00-24.6700N,150-52.3300E,328,29.51,34.4602
5917,2002/12/14,17:10:00,00-24.7700N,150-52.2700E,328,29.507,34.4334
5918,2002/12/14,17:11:00,00-25.0700N,150-52.1000E,329,29.516,34.4583
5919,2002/12/14,17:12:00,00-25.2500N,150-51.9900E,329,29.522,34.4613
5920,2002/12/14,17:13:00,00-25.4500N,150-51.8700E,328,29.528,34.4632
5921,2002/12/14,17:14:00,00-25.6500N,150-51.7500E,329,29.533,34.4651
5922,2002/12/14,17:15:00,00-25.8400N,150-51.6400E,329,29.535,34.4682
5923,2002/12/14,17:16:00,00-26.0300N,150-51.5200E,328,29.532,34.4666
5924,2002/12/14,17:17:00,00-26.1400N,150-51.4500E,327,29.524,34.4665
5925,2002/12/14,17:18:00,00-26.4100N,150-51.2800E,327,29.516,34.4678
5926,2002/12/14,17:19:00,00-26.5700N,150-51.1800E,329,29.519,34.467
5927,2002/12/14,17:20:00,00-26.7500N,150-51.0800E,329,29.515,34.4672
5928,2002/12/14,17:21:00,00-26.9700N,150-50.9500E,329,29.514,34.4668
5929,2002/12/14,17:22:00,00-27.1800N,150-50.8200E,327,29.505,34.4683
5930,2002/12/14,17:23:00,00-27.3300N,150-50.7300E,327,29.51,34.4697
5931,2002/12/14,17:24:00,00-27.5700N,150-50.5800E,327,29.509,34.4712
5932,2002/12/14,17:25:00,00-27.7600N,150-50.4600E,328,29.512,34.4703
5933,2002/12/14,17:26:00,00-27.9500N,150-50.3400E,327,29.513,34.4725
5934,2002/12/14,17:27:00,00-28.1400N,150-50.2100E,326,29.512,34.4724
5935,2002/12/14,17:28:00,00-28.3200N,150-50.1000E,327,29.51,34.4745
5936,2002/12/14,17:29:00,00-28.5300N,150-49.9700E,327,29.508,34.475
5937,2002/12/14,17:30:00,00-28.7000N,150-49.8600E,327,29.509,34.4674
5938,2002/12/14,17:31:00,00-28.9000N,150-49.7300E,326,29.517,34.4757
5939,2002/12/14,17:32:00,00-29.0800N,150-49.6200E,327,29.52,34.4782
5940,2002/12/14,17:33:00,00-29.2800N,150-49.4900E,327,29.518,34.4784
5941,2002/12/14,17:34:00,00-29.4200N,150-49.4000E,326,29.516,34.479
5942,2002/12/14,17:35:00,00-29.6600N,150-49.2400E,327,29.516,34.4781
5943,2002/12/14,17:36:00,00-29.8400N,150-49.1300E,327,29.521,34.4765
5944,2002/12/14,17:37:00,00-30.0400N,150-49.0000E,327,29.517,34.4802
5945,2002/12/14,17:38:00,00-30.1700N,150-48.9200E,327,29.518,34.4805
5946,2002/12/14,17:39:00,00-30.3500N,150-48.8100E,327,29.527,34.4796
5947,2002/12/14,17:40:00,00-30.5300N,150-48.6900E,327,29.529,34.4744
5948,2002/12/14,17:41:00,00-30.8100N,150-48.5100E,327,29.539,34.4768
5949,2002/12/14,17:42:00,00-30.9900N,150-48.3900E,327,29.562,34.4772
5950,2002/12/14,17:43:00,00-31.1400N,150-48.3000E,327,29.562,34.4759
5952,2002/12/14,17:45:00,00-31.5600N,150-48.0400E,327,29.569,34.4755
5953,2002/12/14,17:46:00,00-31.7600N,150-47.9000E,327,29.572,34.476
5954,2002/12/14,17:47:00,00-31.9500N,150-47.7900E,328,29.561,34.4763
5955,2002/12/14,17:48:00,00-32.1100N,150-47.6900E,328,29.553,34.4745
5956,2002/12/14,17:49:00,00-32.3200N,150-47.5600E,328,29.558,34.4752
5957,2002/12/14,17:50:00,00-32.5200N,150-47.4400E,328,29.558,34.4762
5958,2002/12/14,17:51:00,00-32.6900N,150-47.3300E,328,29.557,34.476
5959,2002/12/14,17:52:00,00-32.9100N,150-47.2000E,327,29.562,34.4768
5960,2002/12/14,17:53:00,00-33.0800N,150-47.0900E,327,29.568,34.4786
5961,2002/12/14,17:54:00,00-33.3000N,150-46.9600E,328,29.583,34.4785
5962,2002/12/14,17:55:00,00-33.5000N,150-46.8300E,328,29.599,34.4865
5963,2002/12/14,17:56:00,00-33.6900N,150-46.7200E,328,29.616,34.4961
5964,2002/12/14,17:57:00,00-33.8800N,150-46.6000E,327,29.623,34.4956
5965,2002/12/14,17:58:00,00-34.0700N,150-46.4800E,327,29.628,34.4972
5966,2002/12/14,17:59:00,00-34.2600N,150-46.3600E,327,29.623,34.4982
5967,2002/12/14,18:00:00,00-34.4600N,150-46.2300E,328,29.615,34.5
5968,2002/12/14,18:01:00,00-34.6300N,150-46.1300E,328,29.605,34.4999
5969,2002/12/14,18:02:00,00-34.8400N,150-46.0000E,328,29.604,34.499
5970,2002/12/14,18:03:00,00-35.0300N,150-45.8900E,328,29.594,34.4971
5971,2002/12/14,18:04:00,00-35.2100N,150-45.7700E,328,29.589,34.4974
5972,2002/12/14,18:05:00,00-35.4100N,150-45.6500E,328,29.579,34.4971
5973,2002/12/14,18:06:00,00-35.5800N,150-45.5500E,328,29.581,34.4979
5974,2002/12/14,18:07:00,00-35.7400N,150-45.4400E,327,29.572,34.4982
5975,2002/12/14,18:08:00,00-35.9900N,150-45.2900E,327,29.569,34.4973
5976,2002/12/14,18:09:00,00-36.1800N,150-45.1700E,328,29.561,34.4972
5977,2002/12/14,18:10:00,00-36.3800N,150-45.0500E,328,29.555,34.4976
5978,2002/12/14,18:11:00,00-36.5200N,150-44.9600E,327,29.548,34.4979
5979,2002/12/14,18:12:00,00-36.6900N,150-44.8500E,328,29.548,34.4959
5980,2002/12/14,18:13:00,00-36.8900N,150-44.7300E,327,29.556,34.4967
5981,2002/12/14,18:14:00,00-37.0100N,150-44.6500E,327,29.558,34.4974
5982,2002/12/14,18:15:00,00-37.2500N,150-44.5000E,327,29.559,34.4963
5983,2002/12/14,18:16:00,00-37.5100N,150-44.3300E,327,29.565,34.4987
5984,2002/12/14,18:17:00,00-37.7000N,150-44.2200E,328,29.566,34.5005
5985,2002/12/14,18:18:00,00-37.8100N,150-44.1500E,328,29.565,34.5011
5986,2002/12/14,18:19:00,00-38.0700N,150-43.9900E,328,29.576,34.4995
5987,2002/12/14,18:20:00,00-38.2700N,150-43.8600E,327,29.576,34.5012
5988,2002/12/14,18:21:00,00-38.4600N,150-43.7400E,328,29.583,34.5015
5989,2002/12/14,18:22:00,00-38.6600N,150-43.6200E,328,29.584,34.5015
5990,2002/12/14,18:23:00,00-38.8500N,150-43.5000E,328,29.593,34.504
5991,2002/12/14,18:24:00,00-39.0200N,150-43.3900E,327,29.596,34.5049
5992,2002/12/14,18:25:00,00-39.2100N,150-43.2800E,328,29.598,34.505
5993,2002/12/14,18:26:00,00-39.4300N,150-43.1400E,327,29.593,34.5075
5994,2002/12/14,18:27:00,00-39.5500N,150-43.0600E,327,29.596,34.5069
5995,2002/12/14,18:28:00,00-39.8000N,150-42.9100E,328,29.597,34.5054
5996,2002/12/14,18:29:00,00-39.9900N,150-42.7900E,328,29.596,34.5071
5997,2002/12/14,18:30:00,00-40.1900N,150-42.6700E,328,29.59,34.5074
5998,2002/12/14,18:31:00,00-40.3500N,150-42.5700E,327,29.597,34.5061
5999,2002/12/14,18:32:00,00-40.4400N,150-42.5100E,327,29.596,34.5064
6000,2002/12/14,18:33:00,00-40.7000N,150-42.3600E,328,29.604,34.506
6001,2002/12/14,18:34:00,00-40.9300N,150-42.2100E,328,29.605,34.5037
6002,2002/12/14,18:35:00,00-41.1300N,150-42.0900E,328,29.6,34.5073
6003,2002/12/14,18:36:00,00-41.2900N,150-41.9900E,328,29.598,34.5068
6004,2002/12/14,18:37:00,00-41.5100N,150-41.8500E,327,29.6,34.5077
6005,2002/12/14,18:38:00,00-41.6200N,150-41.7800E,327,29.59,34.5084
6006,2002/12/14,18:39:00,00-41.9100N,150-41.6000E,328,29.589,34.5085
6007,2002/12/14,18:40:00,00-42.0700N,150-41.5100E,328,29.583,34.5077
6008,2002/12/14,18:41:00,00-42.2200N,150-41.4100E,328,29.578,34.5066
6009,2002/12/14,18:42:00,00-42.4600N,150-41.2700E,328,29.575,34.508
6010,2002/12/14,18:43:00,00-42.5900N,150-41.1900E,328,29.582,34.5091
6011,2002/12/14,18:44:00,00-42.7700N,150-41.0700E,328,29.591,34.5115
6012,2002/12/14,18:45:00,00-43.0300N,150-40.9100E,328,29.594,34.5104
6013,2002/12/14,18:46:00,00-43.1700N,150-40.8300E,328,29.596,34.5124
6014,2002/12/14,18:47:00,00-43.3800N,150-40.7000E,328,29.598,34.5131
6015,2002/12/14,18:48:00,00-43.5800N,150-40.5800E,328,29.596,34.5147
6016,2002/12/14,18:49:00,00-43.7400N,150-40.4800E,327,29.596,34.515
6017,2002/12/14,18:50:00,00-43.9800N,150-40.3200E,327,29.59,34.5155
6018,2002/12/14,18:51:00,00-44.2100N,150-40.1800E,328,29.59,34.5152
6019,2002/12/14,18:52:00,00-44.2300N,150-40.1700E,328,29.593,34.5169
6020,2002/12/14,18:53:00,00-44.5300N,150-39.9900E,328,29.597,34.5173
6021,2002/12/14,18:54:00,00-44.7200N,150-39.8800E,328,29.608,34.5202
6022,2002/12/14,18:55:00,00-44.9000N,150-39.7600E,328,29.614,34.5193
6023,2002/12/14,18:56:00,00-45.1900N,150-39.5900E,328,29.616,34.5185
6024,2002/12/14,18:57:00,00-45.3700N,150-39.4700E,328,29.618,34.5203
6025,2002/12/14,18:58:00,00-45.5600N,150-39.3600E,328,29.607,34.5214
6026,2002/12/14,18:59:00,00-45.7600N,150-39.2400E,328,29.6,34.5195
6027,2002/12/14,19:00:00,00-45.9300N,150-39.1300E,327,29.591,34.5201
6028,2002/12/14,19:01:00,00-46.1500N,150-39.0000E,327,29.579,34.5204
6029,2002/12/14,19:02:00,00-46.3500N,150-38.8700E,327,29.574,34.5192
6030,2002/12/14,19:03:00,00-46.5000N,150-38.7800E,327,29.57,34.5187
6031,2002/12/14,19:04:00,00-46.7200N,150-38.6500E,328,29.57,34.52
6032,2002/12/14,19:05:00,00-46.9200N,150-38.5300E,328,29.574,34.52
6033,2002/12/14,19:06:00,00-47.1300N,150-38.4000E,328,29.58,34.5184
6034,2002/12/14,19:07:00,00-47.3000N,150-38.2900E,328,29.583,34.5202
6035,2002/12/14,19:08:00,00-47.5000N,150-38.1600E,327,29.587,34.5209
6036,2002/12/14,19:09:00,00-47.6800N,150-38.0600E,328,29.587,34.5203
6037,2002/12/14,19:10:00,00-47.8500N,150-37.9500E,328,29.584,34.5196
6038,2002/12/14,19:11:00,00-48.0400N,150-37.8400E,327,29.587,34.523
6039,2002/12/14,19:12:00,00-48.2400N,150-37.7100E,328,29.583,34.5218
6040,2002/12/14,19:13:00,00-48.4800N,150-37.5700E,328,29.589,34.5216
6041,2002/12/14,19:14:00,00-48.6300N,150-37.4800E,327,29.587,34.522
6042,2002/12/14,19:15:00,00-48.7700N,150-37.3900E,328,29.586,34.5229
6043,2002/12/14,19:16:00,00-49.0100N,150-37.2400E,327,29.594,34.5232
6044,2002/12/14,19:17:00,00-49.2500N,150-37.0900E,327,29.595,34.522
6045,2002/12/14,19:18:00,00-49.4500N,150-36.9700E,328,29.595,34.5243
6046,2002/12/14,19:19:00,00-49.6400N,150-36.8500E,327,29.588,34.5223
6047,2002/12/14,19:20:00,00-49.8200N,150-36.7400E,328,29.587,34.5234
6048,2002/12/14,19:21:00,00-49.9900N,150-36.6400E,327,29.581,34.5222
6049,2002/12/14,19:22:00,00-50.1700N,150-36.5200E,327,29.573,34.5236
6050,2002/12/14,19:23:00,00-50.3000N,150-36.4400E,327,29.562,34.5219
6051,2002/12/14,19:24:00,00-50.5400N,150-36.2900E,327,29.558,34.5203
6052,2002/12/14,19:25:00,00-50.8100N,150-36.1200E,327,29.554,34.5199
6053,2002/12/14,19:26:00,00-50.9800N,150-36.0200E,327,29.562,34.5214
6054,2002/12/14,19:27:00,00-51.2100N,150-35.8700E,326,29.562,34.5203
6055,2002/12/14,19:28:00,00-51.3400N,150-35.7900E,327,29.562,34.521
6056,2002/12/14,19:29:00,00-51.6000N,150-35.6300E,327,29.56,34.5199
6057,2002/12/14,19:30:00,00-51.6800N,150-35.5800E,327,29.563,34.517
6058,2002/12/14,19:31:00,00-51.9900N,150-35.3900E,327,29.559,34.5202
6059,2002/12/14,19:32:00,00-52.1800N,150-35.2700E,328,29.551,34.5211
6060,2002/12/14,19:33:00,00-52.3700N,150-35.1600E,328,29.544,34.5213
6061,2002/12/14,19:34:00,00-52.5400N,150-35.0500E,328,29.542,34.5198
6062,2002/12/14,19:35:00,00-52.7700N,150-34.9200E,328,29.536,34.5207
6063,2002/12/14,19:36:00,00-52.9400N,150-34.8100E,328,29.528,34.5195
6064,2002/12/14,19:37:00,00-53.1200N,150-34.7000E,327,29.525,34.5195
6065,2002/12/14,19:38:00,00-53.3700N,150-34.5500E,328,29.524,34.5186
6066,2002/12/14,19:39:00,00-53.5500N,150-34.4400E,329,29.519,34.5189
6067,2002/12/14,19:40:00,00-53.6100N,150-34.4100E,329,29.518,34.5173
6068,2002/12/14,19:41:00,00-53.9500N,150-34.2100E,328,29.522,34.5189
6069,2002/12/14,19:42:00,00-54.1200N,150-34.1000E,327,29.527,34.5184
6070,2002/12/14,19:43:00,00-54.3400N,150-33.9600E,328,29.539,34.5169
6071,2002/12/14,19:44:00,00-54.5400N,150-33.8500E,328,29.541,34.5245
6072,2002/12/14,19:45:00,00-54.7400N,150-33.7300E,328,29.549,34.5195
6073,2002/12/14,19:46:00,00-54.9100N,150-33.6300E,329,29.549,34.5188
6074,2002/12/14,19:47:00,00-55.1400N,150-33.4900E,329,29.553,34.5181
6075,2002/12/14,19:48:00,00-55.2100N,150-33.4500E,329,29.556,34.5174
6076,2002/12/14,19:49:00,00-55.5100N,150-33.2700E,328,29.561,34.5178
6077,2002/12/14,19:50:00,00-55.7300N,150-33.1400E,329,29.553,34.5161
6078,2002/12/14,19:51:00,00-55.9300N,150-33.0200E,329,29.529,34.5185
6079,2002/12/14,19:52:00,00-56.1200N,150-32.9100E,329,29.506,34.5169
6080,2002/12/14,19:53:00,00-56.3100N,150-32.8000E,329,29.487,34.5059
6081,2002/12/14,19:54:00,00-56.3800N,150-32.7600E,329,29.474,34.514
6082,2002/12/14,19:55:00,00-56.6700N,150-32.5900E,329,29.464,34.5144
6083,2002/12/14,19:56:00,00-56.9100N,150-32.4500E,329,29.458,34.5119
6084,2002/12/14,19:57:00,00-57.0800N,150-32.3500E,329,29.456,34.5118
6085,2002/12/14,19:58:00,00-57.2700N,150-32.2400E,329,29.456,34.5104
6086,2002/12/14,19:59:00,00-57.4600N,150-32.1300E,329,29.463,34.5107
6087,2002/12/14,20:00:00,00-57.6500N,150-32.0200E,329,29.467,34.5101
6088,2002/12/14,20:01:00,00-57.8400N,150-31.9100E,329,29.476,34.5088
6090,2002/12/14,20:03:00,00-58.3300N,150-31.6200E,329,29.486,34.5114
6091,2002/12/14,20:04:00,00-58.5300N,150-31.4900E,329,29.485,34.5123
6092,2002/12/14,20:05:00,00-58.7100N,150-31.4000E,329,29.493,34.5126
6093,2002/12/14,20:06:00,00-58.8600N,150-31.3100E,329,29.493,34.5127
6094,2002/12/14,20:07:00,00-59.1300N,150-31.1500E,329,29.492,34.5125
6095,2002/12/14,20:08:00,00-59.3400N,150-31.0300E,329,29.49,34.5118
6096,2002/12/14,20:09:00,00-59.3600N,150-31.0200E,329,29.485,34.5123
6097,2002/12/14,20:10:00,00-59.7400N,150-30.7900E,328,29.479,34.5109
6098,2002/12/14,20:11:00,00-59.9100N,150-30.6900E,328,29.472,34.5116
6099,2002/12/14,20:12:00,01-00.1200N,150-30.5700E,329,29.464,34.5105
6100,2002/12/14,20:13:00,01-00.3000N,150-30.4700E,330,29.445,34.5108
6101,2002/12/14,20:14:00,01-00.5300N,150-30.3300E,329,29.441,34.5116
6102,2002/12/14,20:15:00,01-00.7300N,150-30.2100E,328,29.438,34.5104
6103,2002/12/14,20:16:00,01-00.8800N,150-30.1200E,328,29.435,34.5091
6104,2002/12/14,20:17:00,01-01.1100N,150-29.9800E,328,29.431,34.5116
6105,2002/12/14,20:18:00,01-01.2800N,150-29.8800E,329,29.432,34.5101
6106,2002/12/14,20:19:00,01-01.5400N,150-29.7300E,328,29.435,34.5098
6107,2002/12/14,20:20:00,01-01.7000N,150-29.6300E,328,29.439,34.5095
6108,2002/12/14,20:21:00,01-01.9400N,150-29.4900E,329,29.444,34.4904
6109,2002/12/14,20:22:00,01-02.1300N,150-29.3800E,329,29.451,34.5104
6110,2002/12/14,20:23:00,01-02.3400N,150-29.2600E,329,29.455,34.5097
6111,2002/12/14,20:24:00,01-02.5300N,150-29.1400E,328,29.452,34.5103
6112,2002/12/14,20:25:00,01-02.7200N,150-29.0300E,328,29.445,34.5122
6113,2002/12/14,20:26:00,01-02.9100N,150-28.9100E,328,29.445,34.5114
6114,2002/12/14,20:27:00,01-03.0600N,150-28.8200E,328,29.44,34.4956
6115,2002/12/14,20:28:00,01-03.3300N,150-28.6600E,327,29.437,34.5112
6116,2002/12/14,20:29:00,01-03.5300N,150-28.5300E,328,29.438,34.511
6117,2002/12/14,20:30:00,01-03.7200N,150-28.4200E,329,29.441,34.5102
6118,2002/12/14,20:31:00,01-03.8000N,150-28.3700E,329,29.445,34.5118
6119,2002/12/14,20:32:00,01-04.0300N,150-28.2400E,328,29.445,34.5127
6120,2002/12/14,20:33:00,01-04.2200N,150-28.1300E,328,29.45,34.5116
6121,2002/12/14,20:34:00,01-04.4500N,150-27.9900E,329,29.445,34.512
6122,2002/12/14,20:35:00,01-04.7300N,150-27.8300E,328,29.44,34.5116
6123,2002/12/14,20:36:00,01-04.9200N,150-27.7100E,328,29.446,34.5109
6124,2002/12/14,20:37:00,01-05.1200N,150-27.5900E,329,29.441,34.5109
6125,2002/12/14,20:38:00,01-05.3100N,150-27.4800E,329,29.44,34.5112
6126,2002/12/14,20:39:00,01-05.4000N,150-27.4300E,329,29.442,34.5117
6127,2002/12/14,20:40:00,01-05.7100N,150-27.2400E,329,29.442,34.5142
6128,2002/12/14,20:41:00,01-05.9100N,150-27.1200E,328,29.439,34.5128
6129,2002/12/14,20:42:00,01-06.1200N,150-27.0000E,329,29.435,34.513
6130,2002/12/14,20:43:00,01-06.3200N,150-26.8800E,328,29.434,34.5148